TimeCDT,TemperatureF,Dew PointF,Humidity,Sea Level PressureIn,VisibilityMPH,Wind Direction,Wind SpeedMPH,Gust SpeedMPH,PrecipitationIn,Events,Conditions,WindDirDegrees,DateUTC
12:53 AM,82.9,66.0,56,29.87,10.0,South,6.9,-,N/A,,Clear,180,2013-09-09 05:53:00
1:53 AM,81.0,64.0,56,29.87,10.0,South,5.8,-,N/A,,Clear,190,2013-09-09 06:53:00
2:53 AM,79.0,63.0,58,29.88,10.0,South,5.8,-,N/A,,Clear,180,2013-09-09 07:53:00
3:53 AM,78.1,62.1,58,29.88,10.0,South,4.6,-,N/A,,Clear,180,2013-09-09 08:53:00
4:53 AM,78.1,62.1,58,29.89,10.0,South,5.8,-,N/A,,Clear,180,2013-09-09 09:53:00
5:53 AM,75.0,62.1,64,29.90,10.0,South,6.9,-,N/A,,Clear,180,2013-09-09 10:53:00
6:53 AM,73.9,62.1,66,29.91,10.0,South,6.9,-,N/A,,Partly Cloudy,180,2013-09-09 11:53:00
7:53 AM,75.9,63.0,64,29.93,10.0,South,5.8,-,N/A,,Partly Cloudy,180,2013-09-09 12:53:00
8:53 AM,81.0,64.0,56,29.94,10.0,South,6.9,-,N/A,,Partly Cloudy,190,2013-09-09 13:53:00
9:53 AM,84.9,64.9,51,29.95,10.0,SW,5.8,-,N/A,,Clear,220,2013-09-09 14:53:00
10:53 AM,89.1,66.0,46,29.95,10.0,SSW,8.1,-,N/A,,Clear,210,2013-09-09 15:53:00
11:53 AM,91.9,64.9,41,29.95,10.0,SW,8.1,-,N/A,,Clear,220,2013-09-09 16:53:00
12:53 PM,95.0,63.0,34,29.94,10.0,SSW,17.3,23.0,N/A,,Partly Cloudy,200,2013-09-09 17:53:00
1:53 PM,96.1,64.0,35,29.93,10.0,South,16.1,-,N/A,,Scattered Clouds,170,2013-09-09 18:53:00
2:53 PM,95.0,61.0,32,29.91,10.0,South,17.3,26.5,N/A,,Scattered Clouds,170,2013-09-09 19:53:00
3:53 PM,95.0,62.1,33,29.89,10.0,SSE,17.3,23.0,N/A,,Scattered Clouds,160,2013-09-09 20:53:00
4:53 PM,95.0,62.1,33,29.88,10.0,South,15.0,27.6,N/A,,Partly Cloudy,170,2013-09-09 21:53:00
5:53 PM,93.9,61.0,33,29.87,10.0,South,13.8,25.3,N/A,,Partly Cloudy,180,2013-09-09 22:53:00
6:53 PM,93.0,60.1,33,29.87,10.0,South,11.5,-,N/A,,Partly Cloudy,180,2013-09-09 23:53:00
7:53 PM,90.0,60.1,37,29.88,10.0,South,6.9,-,N/A,,Clear,180,2013-09-10 00:53:00
8:53 PM,88.0,60.1,39,29.89,10.0,South,6.9,-,N/A,,Clear,170,2013-09-10 01:53:00
9:53 PM,79.0,63.0,58,29.91,10.0,SSE,5.8,-,N/A,,Clear,150,2013-09-10 02:53:00
10:53 PM,82.9,63.0,51,29.92,10.0,SSE,4.6,-,N/A,,Clear,160,2013-09-10 03:53:00
11:53 PM,82.0,63.0,52,29.93,10.0,South,8.1,-,N/A,,Clear,170,2013-09-10 04:53:00